{"data":{"norad_id":60358,"epoch":"2026-09-21T19:57:50.866272Z","epoch_age_seconds":70507,"freshness":"FRESH","line1":"1 60358U 24138D   26264.83183873  .00001419  00000+0  53152-4 0  9995","line2":"2 60358  53.1596 117.4289 0001070  81.1375 278.9749 15.34375986120671","mean_motion":15.34375986,"eccentricity":0.000107,"inclination_deg":53.1596,"raan_deg":117.4289,"arg_perigee_deg":81.1375,"mean_anomaly_deg":278.9749,"bstar":5.3152e-5,"rev_number":12067,"period_min":93.84922686088,"perigee_km":462.04263826382,"apogee_km":463.5065933496,"semimajor_km":6840.9116158067,"source":"CELESTRAK","updated_at":"2026-09-22T09:00:49.223957Z"}}